Track FAST 1 (USA 222) now! 10-day predictions FAST 1 (USA 222) is classified as:
1 37227U 10062F 23152.90689736 .00001206 00000-0 16317-3 0 9991 2 37227 71.9681 92.1425 0014225 37.0858 323.1286 14.80881010201103